Location: N�rnberg
(49.4489°N, 11.0797°E)
Time: 17:50:54
(UTC+02:00)

ISS - Pass Details

Date: 04 January 2018
Orbit: 402 x 408 km, 51.6° (Epoch: 23 July)

Event Time Altitude Azimuth Distance (km) Brightness Sun altitude
Exits shadow 05:24:50 27° 73° (ENE) 847 -1.7 -26.0°
Drops below altitude 10° 05:26:30 10° 72° (ENE) 1,503 -0.1 -25.7°
Sets 05:28:36 0° 72° (ENE) 2,372 1.1 -25.4°
